"Period start","avg(HW err(1)/warn(2) (#))","avg(Visibility (m))","avg(Weather code (#))","avg(Precip intensity (mm/h))","min(HW err(1)/warn(2) (#))","max(HW err(1)/warn(2) (#))","std(HW err(1)/warn(2) (#))","med(HW err(1)/warn(2) (#))","min(Visibility (m))","max(Visibility (m))","std(Visibility (m))","med(Visibility (m))","min(Weather code (#))","max(Weather code (#))","std(Weather code (#))","med(Weather code (#))","min(Precip intensity (mm/h))","max(Precip intensity (mm/h))","std(Precip intensity (mm/h))","med(Precip intensity (mm/h))"
2014-10-04 00:00:00,2,31802,20,0.00,2,2,0,2,28052,37072,3256,31476,20,20,0,20,0.00,0.00,0.00,0.00
2014-10-04 00:10:00,2,30483,20,0.00,2,2,0,2,24225,34816,3452,30361,20,20,0,20,0.00,0.00,0.00,0.00
2014-10-04 00:20:00,2,27033,6,0.00,2,2,0,2,22191,31462,3090,27658,0,20,9,0,0.00,0.00,0.00,0.00
2014-10-04 00:30:00,2,27916,0,0.00,2,2,0,2,25988,31138,1869,27170,0,0,0,0,0.00,0.00,0.00,0.00
2014-10-04 00:40:00,2,25743,0,0.00,2,2,0,2,19962,33376,4160,25744,0,0,0,0,0.00,0.00,0.00,0.00
2014-10-04 00:50:00,2,25678,0,0.00,2,2,0,2,19410,31419,2921,25708,0,0,0,0,0.00,0.00,0.00,0.00
2014-10-04 01:00:00,2,23917,0,0.00,2,2,0,2,20140,31286,3312,23558,0,0,0,0,0.00,0.00,0.00,0.00
2014-10-04 01:10:00,2,17228,0,0.00,2,2,0,2,9917,21836,4110,18490,0,0,0,0,0.00,0.00,0.00,0.00
2014-10-04 01:20:00,2,12494,0,0.00,2,2,0,2,10338,15082,1512,12431,0,0,0,0,0.00,0.00,0.00,0.00
2014-10-04 01:30:00,2,15893,0,0.00,2,2,0,2,12712,20765,2348,15617,0,0,0,0,0.00,0.00,0.00,0.00
2014-10-04 01:40:00,2,19209,0,0.00,2,2,0,2,16346,21598,1596,19090,0,0,0,0,0.00,0.00,0.00,0.00
2014-10-04 01:50:00,2,19000,0,0.00,2,2,0,2,13725,24714,3537,18464,0,0,0,0,0.00,0.00,0.00,0.00
2014-10-04 02:00:00,2,18309,0,0.00,2,2,0,2,16100,21323,1502,18196,0,0,0,0,0.00,0.00,0.00,0.00
2014-10-04 02:10:00,2,17818,0,0.00,2,2,0,2,16032,22588,1855,17826,0,0,0,0,0.00,0.00,0.00,0.00
2014-10-04 02:20:00,2,15163,0,0.00,2,2,0,2,11438,19041,2030,15041,0,0,0,0,0.00,0.00,0.00,0.00
2014-10-04 02:30:00,2,16724,0,0.00,2,2,0,2,13669,27943,4181,15228,0,0,0,0,0.00,0.00,0.00,0.00
2014-10-04 02:40:00,2,15332,0,0.00,2,2,0,2,12354,20158,2215,14815,0,0,0,0,0.00,0.00,0.00,0.00
2014-10-04 02:50:00,2,21665,0,0.00,2,2,0,2,18777,28031,2771,20872,0,0,0,0,0.00,0.00,0.00,0.00
2014-10-04 03:00:00,2,21411,0,0.00,2,2,0,2,16422,26740,3410,21002,0,0,0,0,0.00,0.00,0.00,0.00
2014-10-04 03:10:00,2,20342,0,0.00,2,2,0,2,17067,25459,2380,20388,0,0,0,0,0.00,0.00,0.00,0.00
2014-10-04 03:20:00,2,15165,0,0.00,2,2,0,2,9688,21561,3473,15475,0,0,0,0,0.00,0.00,0.00,0.00
2014-10-04 03:30:00,2,13989,0,0.00,2,2,0,2,11069,15736,1296,14326,0,0,0,0,0.00,0.00,0.00,0.00
2014-10-04 03:40:00,2,13877,0,0.00,2,2,0,2,11046,16746,1865,13586,0,0,0,0,0.00,0.00,0.00,0.00
2014-10-04 03:50:00,2,14977,0,0.00,2,2,0,2,9120,21620,4216,13660,0,0,0,0,0.00,0.00,0.00,0.00
2014-10-04 04:00:00,2,27058,0,0.00,2,2,0,2,21167,32412,3303,27586,0,0,0,0,0.00,0.00,0.00,0.00
2014-10-04 04:10:00,2,26230,0,0.00,2,2,0,2,22086,32041,2977,25082,0,0,0,0,0.00,0.00,0.00,0.00
2014-10-04 04:20:00,2,25726,0,0.00,2,2,0,2,22052,32601,3010,25688,0,0,0,0,0.00,0.00,0.00,0.00
2014-10-04 04:30:00,2,26020,0,0.00,2,2,0,2,22911,28214,1819,26424,0,0,0,0,0.00,0.00,0.00,0.00
2014-10-04 04:40:00,2,27976,0,0.00,2,2,0,2,23426,30560,2383,27997,0,0,0,0,0.00,0.00,0.00,0.00
2014-10-04 04:50:00,2,25906,0,0.00,2,2,0,2,21149,30487,2937,26368,0,0,0,0,0.00,0.00,0.00,0.00
2014-10-04 05:00:00,2,28035,0,0.00,2,2,0,2,22043,35665,4226,27788,0,0,0,0,0.00,0.00,0.00,0.00
2014-10-04 05:10:00,2,27714,0,0.00,2,2,0,2,22409,33141,2799,27285,0,0,0,0,0.00,0.00,0.00,0.00
2014-10-04 05:20:00,2,22846,0,0.00,2,2,0,2,20643,25504,1396,22934,0,0,0,0,0.00,0.00,0.00,0.00
2014-10-04 05:30:00,2,20617,0,0.00,2,2,0,2,18082,23663,1804,20297,0,0,0,0,0.00,0.00,0.00,0.00
2014-10-04 05:40:00,2,20050,0,0.00,2,2,0,2,16892,24201,2142,19906,0,0,0,0,0.00,0.00,0.00,0.00
2014-10-04 05:50:00,2,20714,0,0.00,2,2,0,2,18083,24169,1525,20528,0,0,0,0,0.00,0.00,0.00,0.00
2014-10-04 06:00:00,2,18361,0,0.00,2,2,0,2,15537,20435,1676,18798,0,0,0,0,0.00,0.00,0.00,0.00
2014-10-04 06:10:00,2,16860,0,0.00,2,2,0,2,15181,19010,1028,16774,0,0,0,0,0.00,0.00,0.00,0.00
2014-10-04 06:20:00,2,17832,0,0.00,2,2,0,2,17020,19695,769,17629,0,0,0,0,0.00,0.00,0.00,0.00
2014-10-04 06:30:00,2,17838,0,0.00,2,2,0,2,16524,18935,783,17900,0,0,0,0,0.00,0.00,0.00,0.00
2014-10-04 06:40:00,2,17401,0,0.00,2,2,0,2,15471,18647,891,17558,0,0,0,0,0.00,0.00,0.00,0.00
2014-10-04 06:50:00,2,16183,0,0.00,2,2,0,2,14093,17745,1102,16148,0,0,0,0,0.00,0.00,0.00,0.00
2014-10-04 07:00:00,2,15384,0,0.00,2,2,0,2,14563,16385,631,15104,0,0,0,0,0.00,0.00,0.00,0.00
2014-10-04 07:10:00,2,14604,0,0.00,2,2,0,2,13810,15802,609,14524,0,0,0,0,0.00,0.00,0.00,0.00
2014-10-04 07:20:00,2,15627,0,0.00,2,2,0,2,14004,16944,982,15786,0,0,0,0,0.00,0.00,0.00,0.00
2014-10-04 07:30:00,2,14783,0,0.00,2,2,0,2,12315,16470,1316,14521,0,0,0,0,0.00,0.00,0.00,0.00
2014-10-04 07:40:00,2,12531,0,0.00,2,2,0,2,11415,14265,705,12428,0,0,0,0,0.00,0.00,0.00,0.00
2014-10-04 07:50:00,2,10353,0,0.00,2,2,0,2,8538,12145,1117,9930,0,0,0,0,0.00,0.00,0.00,0.00
2014-10-04 08:00:00,2,9471,0,0.00,2,2,0,2,8472,10235,482,9555,0,0,0,0,0.00,0.00,0.00,0.00
2014-10-04 08:10:00,2,11208,0,0.00,2,2,0,2,9637,13460,1329,11080,0,0,0,0,0.00,0.00,0.00,0.00
2014-10-04 08:20:00,2,15968,0,0.00,2,2,0,2,13385,17765,1318,16010,0,0,0,0,0.00,0.00,0.00,0.00
2014-10-04 08:30:00,2,18654,0,0.00,2,2,0,2,17216,21158,1232,18650,0,0,0,0,0.00,0.00,0.00,0.00
2014-10-04 08:40:00,2,20241,0,0.00,2,2,0,2,18322,24251,1732,19604,0,0,0,0,0.00,0.00,0.00,0.00
2014-10-04 08:50:00,2,17502,0,0.00,2,2,0,2,16320,21006,1561,16834,0,0,0,0,0.00,0.00,0.00,0.00
2014-10-04 09:00:00,2,16111,0,0.00,2,2,0,2,15533,16966,452,16071,0,0,0,0,0.00,0.00,0.00,0.00
2014-10-04 09:10:00,2,17248,0,0.00,2,2,0,2,15815,19095,950,17303,0,0,0,0,0.00,0.00,0.00,0.00
2014-10-04 09:20:00,2,15487,0,0.00,2,2,0,2,14366,16656,693,15490,0,0,0,0,0.00,0.00,0.00,0.00
2014-10-04 09:30:00,2,16400,0,0.00,2,2,0,2,14515,18125,1123,16536,0,0,0,0,0.00,0.00,0.00,0.00
2014-10-04 09:40:00,2,17334,0,0.00,2,2,0,2,15924,18541,817,17337,0,0,0,0,0.00,0.00,0.00,0.00
2014-10-04 09:50:00,2,15367,0,0.00,2,2,0,2,13341,16721,1069,15550,0,0,0,0,0.00,0.00,0.00,0.00
2014-10-04 10:00:00,2,13179,0,0.00,2,2,0,2,12386,13791,434,13178,0,0,0,0,0.00,0.00,0.00,0.00
2014-10-04 10:10:00,2,12025,0,0.00,2,2,0,2,11294,13152,636,11828,0,0,0,0,0.00,0.00,0.00,0.00
2014-10-04 10:20:00,2,11421,0,0.00,2,2,0,2,10803,12171,376,11476,0,0,0,0,0.00,0.00,0.00,0.00
2014-10-04 10:30:00,2,11306,0,0.00,2,2,0,2,10827,12114,428,11250,0,0,0,0,0.00,0.00,0.00,0.00
2014-10-04 10:40:00,2,11172,0,0.00,2,2,0,2,10433,12066,488,11152,0,0,0,0,0.00,0.00,0.00,0.00
2014-10-04 10:50:00,2,11112,0,0.00,2,2,0,2,10626,11773,367,11128,0,0,0,0,0.00,0.00,0.00,0.00
2014-10-04 11:00:00,2,11508,0,0.00,2,2,0,2,10501,12337,558,11610,0,0,0,0,0.00,0.00,0.00,0.00
2014-10-04 11:10:00,2,10540,0,0.00,2,2,0,2,9017,11374,733,10946,0,0,0,0,0.00,0.00,0.00,0.00
2014-10-04 11:20:00,2,10990,0,0.00,2,2,0,2,10504,11596,335,10901,0,0,0,0,0.00,0.00,0.00,0.00
2014-10-04 11:30:00,2,10680,0,0.00,2,2,0,2,9857,11617,441,10687,0,0,0,0,0.00,0.00,0.00,0.00
2014-10-04 11:40:00,2,11433,0,0.00,2,2,0,2,10877,12177,380,11365,0,0,0,0,0.00,0.00,0.00,0.00
2014-10-04 11:50:00,2,10932,49,0.00,2,2,0,2,10086,11745,420,10886,0,77,29,56,0.00,0.00,0.00,0.00
2014-10-04 12:00:00,2,11450,30,0.00,2,2,0,2,10787,12800,562,11272,0,77,36,0,0.00,0.00,0.00,0.00
2014-10-04 12:10:00,2,11633,0,0.00,2,2,0,2,11104,12164,383,11694,0,0,0,0,0.00,0.00,0.00,0.00
2014-10-04 12:20:00,2,11648,0,0.00,2,2,0,2,10973,12207,361,11634,0,0,0,0,0.00,0.00,0.00,0.00
2014-10-04 12:30:00,2,12369,0,0.00,2,2,0,2,11428,13543,705,12280,0,0,0,0,0.00,0.00,0.00,0.00
2014-10-04 12:40:00,2,13150,0,0.00,2,2,0,2,12575,14037,490,13126,0,0,0,0,0.00,0.00,0.00,0.00
2014-10-04 12:50:00,2,12407,0,0.00,2,2,0,2,11922,12781,314,12500,0,0,0,0,0.00,0.00,0.00,0.00
2014-10-04 13:00:00,2,11858,0,0.00,2,2,0,2,11307,12404,355,11952,0,0,0,0,0.00,0.00,0.00,0.00
2014-10-04 13:10:00,2,12642,0,0.00,2,2,0,2,11840,13593,495,12465,0,0,0,0,0.00,0.00,0.00,0.00
2014-10-04 13:20:00,2,13250,0,0.00,2,2,0,2,12576,14201,476,13286,0,0,0,0,0.00,0.00,0.00,0.00
2014-10-04 13:30:00,2,12484,0,0.00,2,2,0,2,11712,13468,611,12412,0,0,0,0,0.00,0.00,0.00,0.00
2014-10-04 13:40:00,2,12130,0,0.00,2,2,0,2,11630,12499,293,12143,0,0,0,0,0.00,0.00,0.00,0.00
2014-10-04 13:50:00,2,11637,0,0.00,2,2,0,2,10394,12833,799,11842,0,0,0,0,0.00,0.00,0.00,0.00
2014-10-04 14:00:00,2,10514,0,0.00,2,2,0,2,9576,11225,570,10636,0,0,0,0,0.00,0.00,0.00,0.00
2014-10-04 14:10:00,2,10345,0,0.00,2,2,0,2,9523,11212,616,10345,0,0,0,0,0.00,0.00,0.00,0.00
2014-10-04 14:20:00,2,10134,0,0.00,2,2,0,2,8591,11099,710,10050,0,0,0,0,0.00,0.00,0.00,0.00
2014-10-04 14:30:00,2,8753,4,0.00,2,2,0,2,7455,10008,732,8849,0,40,12,0,0.00,0.00,0.00,0.00
2014-10-04 14:40:00,2,9545,70,0.00,2,2,0,2,7330,11696,1072,9584,40,77,10,71,0.00,0.00,0.00,0.00
2014-10-04 14:50:00,2,9790,74,0.00,2,2,0,2,8166,11290,1090,9912,71,77,3,74,0.00,0.00,0.00,0.00
2014-10-04 15:00:00,2,9385,75,0.00,2,2,0,2,8600,10207,511,9304,71,77,3,77,0.00,0.00,0.00,0.00
2014-10-04 15:10:00,2,7340,76,0.02,2,2,0,2,6193,8498,807,7109,71,77,2,77,0.00,0.05,0.02,0.00
2014-10-04 15:20:00,2,11781,53,0.00,2,2,0,2,8137,14460,2437,12247,0,77,35,74,0.00,0.00,0.00,0.00
2014-10-04 15:30:00,2,18467,0,0.00,2,2,0,2,14409,21144,1651,18692,0,0,0,0,0.00,0.00,0.00,0.00
2014-10-04 15:40:00,2,18670,0,0.00,2,2,0,2,16941,20090,865,18572,0,0,0,0,0.00,0.00,0.00,0.00
2014-10-04 15:50:00,2,17531,0,0.00,2,2,0,2,16681,18887,644,17486,0,0,0,0,0.00,0.00,0.00,0.00
2014-10-04 16:00:00,2,14139,0,0.00,2,2,0,2,12482,17023,1528,13562,0,0,0,0,0.00,0.00,0.00,0.00
2014-10-04 16:10:00,2,11635,0,0.00,2,2,0,2,10003,15489,1606,11000,0,0,0,0,0.00,0.00,0.00,0.00
2014-10-04 16:20:00,2,10830,0,0.00,2,2,0,2,9072,11722,740,10998,0,0,0,0,0.00,0.00,0.00,0.00
2014-10-04 16:30:00,2,10520,0,0.00,2,2,0,2,9226,11754,739,10522,0,0,0,0,0.00,0.00,0.00,0.00
2014-10-04 16:40:00,2,9372,61,0.00,2,2,0,2,8055,10397,649,9324,40,77,17,71,0.00,0.00,0.00,0.00
2014-10-04 16:50:00,2,11114,74,0.00,2,2,0,2,9196,13500,1307,10910,71,77,3,74,0.00,0.00,0.00,0.00
2014-10-04 17:00:00,2,10684,74,0.00,2,2,0,2,9800,11537,627,10612,71,77,3,74,0.00,0.00,0.00,0.00
2014-10-04 17:10:00,2,10429,74,0.00,2,2,0,2,9139,13087,1137,10246,71,77,3,74,0.00,0.00,0.00,0.00
2014-10-04 17:20:00,2,11612,74,0.00,2,2,0,2,9240,14150,1210,11490,71,77,3,74,0.00,0.00,0.00,0.00
2014-10-04 17:30:00,2,8537,76,0.01,2,2,0,2,7334,10067,781,8220,71,77,2,77,0.00,0.05,0.02,0.00
2014-10-04 17:40:00,2,8600,75,0.01,2,2,0,2,6799,12077,1473,8483,71,77,3,77,0.00,0.05,0.02,0.00
2014-10-04 17:50:00,2,11016,74,0.00,2,2,0,2,10282,12482,637,10822,71,77,3,74,0.00,0.00,0.00,0.00
2014-10-04 18:00:00,2,10090,74,0.02,2,2,0,2,6366,11883,1800,10574,71,77,3,74,0.00,0.15,0.05,0.00
2014-10-04 18:10:00,2,8666,75,0.02,2,2,0,2,5162,11225,2233,9526,71,77,3,77,0.00,0.10,0.03,0.00
2014-10-04 18:20:00,2,10598,74,0.00,2,2,0,2,9354,11760,660,10770,71,77,3,74,0.00,0.00,0.00,0.00
2014-10-04 18:30:00,2,10327,75,0.00,2,2,0,2,9085,11707,800,10082,71,77,3,77,0.00,0.00,0.00,0.00
2014-10-04 18:40:00,2,9486,75,0.00,2,2,0,2,7768,10506,765,9550,71,77,3,77,0.00,0.00,0.00,0.00
2014-10-04 18:50:00,2,8453,75,0.01,2,2,0,2,5650,11436,1890,8330,71,77,3,77,0.00,0.05,0.02,0.00
2014-10-04 19:00:00,2,8814,75,0.00,2,2,0,2,6859,12744,1940,8236,71,77,3,77,0.00,0.00,0.00,0.00
2014-10-04 19:10:00,2,10962,74,0.00,2,2,0,2,9864,11912,572,10988,71,77,3,74,0.00,0.00,0.00,0.00
2014-10-04 19:20:00,2,9978,22,0.00,2,2,0,2,9246,11262,615,9818,0,77,33,0,0.00,0.00,0.00,0.00
2014-10-04 19:30:00,2,9160,36,0.03,2,2,0,2,8633,9646,389,9248,0,71,36,36,0.00,0.10,0.04,0.00
2014-10-04 19:40:00,2,9041,73,0.01,2,2,0,2,8198,10489,618,9118,71,77,3,71,0.00,0.05,0.02,0.00
2014-10-04 19:50:00,2,9548,72,0.01,2,2,0,2,8963,9939,310,9563,71,77,2,71,0.00,0.10,0.03,0.00
2014-10-04 20:00:00,2,8872,75,0.07,2,2,0,2,7314,10164,962,8957,71,77,3,77,0.00,0.35,0.10,0.05
2014-10-04 20:10:00,2,7257,71,0.28,2,2,0,2,6218,9044,811,6996,71,71,0,71,0.05,0.75,0.20,0.25
2014-10-04 20:20:00,2,9743,71,0.18,2,2,0,2,8281,11894,943,9797,71,71,0,71,0.05,0.60,0.18,0.10
2014-10-04 20:30:00,2,12757,71,0.09,2,2,0,2,8791,16761,2359,12876,71,71,0,71,0.00,0.30,0.09,0.05
2014-10-04 20:40:00,2,20588,74,0.00,2,2,0,2,14779,29916,5218,18194,71,77,3,74,0.00,0.00,0.00,0.00
2014-10-04 20:50:00,2,24286,15,0.00,2,2,0,2,19990,31261,3627,23524,0,77,30,0,0.00,0.00,0.00,0.00
2014-10-04 21:00:00,2,18445,21,0.00,2,2,0,2,14668,22496,2692,18715,0,71,33,0,0.00,0.00,0.00,0.00
2014-10-04 21:10:00,2,24117,75,0.00,2,2,0,2,18542,29286,2989,23544,71,77,3,77,0.00,0.00,0.00,0.00
2014-10-04 21:20:00,2,30236,30,0.00,2,2,0,2,22431,37254,4320,30587,0,77,37,0,0.00,0.00,0.00,0.00
2014-10-04 21:30:00,2,28548,0,0.00,2,2,0,2,25224,32958,2767,27724,0,0,0,0,0.00,0.00,0.00,0.00
2014-10-04 21:40:00,2,29513,0,0.00,2,2,0,2,25653,37172,3719,27821,0,0,0,0,0.00,0.00,0.00,0.00
2014-10-04 21:50:00,2,29136,0,0.00,2,2,0,2,21340,40368,6880,27418,0,0,0,0,0.00,0.00,0.00,0.00
2014-10-04 22:00:00,2,16237,61,0.00,2,2,0,2,11221,21495,3041,16383,40,77,17,71,0.00,0.00,0.00,0.00
2014-10-04 22:10:00,2,11343,75,0.02,2,2,0,2,6749,15448,2895,12244,71,77,3,77,0.00,0.05,0.02,0.00
2014-10-04 22:20:00,2,17157,76,0.03,2,2,0,2,8960,29094,7184,15324,71,77,2,77,0.00,0.05,0.03,0.03
2014-10-04 22:30:00,2,28902,30,0.00,2,2,0,2,24250,35155,4047,27853,0,77,37,0,0.00,0.00,0.00,0.00
2014-10-04 22:40:00,2,33588,0,0.00,2,2,0,2,27789,42574,4425,32344,0,0,0,0,0.00,0.00,0.00,0.00
2014-10-04 22:50:00,2,33831,21,0.00,2,2,0,2,26884,39809,3217,34021,0,71,33,0,0.00,0.00,0.00,0.00
2014-10-04 23:00:00,2,47651,15,0.00,2,2,0,2,41805,50000,2720,48663,0,77,30,0,0.00,0.00,0.00,0.00
2014-10-04 23:10:00,2,47155,0,0.00,2,2,0,2,40719,50000,2771,47776,0,0,0,0,0.00,0.00,0.00,0.00
2014-10-04 23:20:00,2,42407,0,0.00,2,2,0,2,38407,49899,3688,41013,0,0,0,0,0.00,0.00,0.00,0.00
2014-10-04 23:30:00,2,42580,0,0.00,2,2,0,2,34412,48634,3670,43192,0,0,0,0,0.00,0.00,0.00,0.00
2014-10-04 23:40:00,2,36135,0,0.00,2,2,0,2,29145,41023,3928,37314,0,0,0,0,0.00,0.00,0.00,0.00
"Period start","avg(HW err(1)/warn(2) (#))","avg(Visibility (m))","avg(Weather code (#))","avg(Precip intensity (mm/h))","min(HW err(1)/warn(2) (#))","max(HW err(1)/warn(2) (#))","std(HW err(1)/warn(2) (#))","med(HW err(1)/warn(2) (#))","min(Visibility (m))","max(Visibility (m))","std(Visibility (m))","med(Visibility (m))","min(Weather code (#))","max(Weather code (#))","std(Weather code (#))","med(Weather code (#))","min(Precip intensity (mm/h))","max(Precip intensity (mm/h))","std(Precip intensity (mm/h))","med(Precip intensity (mm/h))"
2014-10-04 23:50:00,2,37047,0,0.00,2,2,0,2,30517,47065,4747,37290,0,0,0,0,0.00,0.00,0.00,0.00
